Port Hope, MI

6:48 PM EDT on October 16, 2017 (GMT -0400)
Port Hope

Weather History for KP58 - December, 2013

Change the Weather History Date:

Wednesday, December 4, 2013

  Actual Average Record
Temperature  
Mean Temperature 39 °F -  
Max Temperature 45 °F 36 °F 64 °F (2012)
Min Temperature 35 °F 28 °F 12 °F (2002)
Degree Days  
Heating Degree Days 26    
Moisture  
Dew Point 37 °F    
Average Humidity 92    
Maximum Humidity 97    
Minimum Humidity 86    
Precipitation  
Precipitation 0.36 in - - ()
Sea Level Pressure  
Sea Level Pressure 29.82 in    
Wind  
Wind Speed 11 mph (SE)    
Max Wind Speed 18 mph    
Max Gust Speed 29 mph    
Averages and records for this station are not official NWS values.
T = Trace of Precipitation, MM = Missing Value Source: NWS Daily Summary

Daily Weather History Graph

Daily Weather History Graph

Search for Another Location

Airport or City:

Trip Planner

Search our weather history database for the weather conditions in past years. The results will help you decide how hot, cold, wet, or windy it might be!

Date:

Astronomy

Dec. 04, 2013 Rise Set
Actual Time 7:49 AM EST 4:53 PM EST
Civil Twilight 7:16 AM EST 5:26 PM EST
Nautical Twilight 6:40 AM EST 6:02 PM EST
Astronomical Twilight 6:05 AM EST 6:37 PM EST
Moon 9:15 AM EST (12/4) 7:04 PM EST (12/4)
Length of Visible Light 10h 09m
Length of Day
9h 04m
Waxing Crescent, 4% of the Moon is Illuminated
Dec 4
Waxing Crescent
Dec 9
First Quarter
Dec 17
Full
Dec 25
Last Quarter
Jan 1
New

Hourly Weather History & Observations

Time (EST) Temp. Windchill Dew Point Humidity Pressure Visibility Wind Dir Wind Speed Gust Speed Precip Events Conditions
12:51 AM 35.1 °F 25.5 °F 32.0 °F 89% 29.93 in - East 15.0 mph - 0.08 in   Unknown
1:51 AM 35.1 °F 25.5 °F 33.1 °F 92% 29.91 in - ESE 15.0 mph - 0.06 in   Unknown
2:51 AM 35.1 °F 25.2 °F 33.1 °F 92% 29.89 in - ESE 16.1 mph - 0.02 in   Unknown
3:51 AM 36.0 °F 28.5 °F 34.0 °F 93% 29.90 in - SE 10.4 mph - N/A   Unknown
4:51 AM 37.0 °F 34.5 °F 35.1 °F 93% 29.89 in - SSE 3.5 mph - N/A   Unknown
5:51 AM 36.0 °F 32.1 °F 35.1 °F 97% 29.90 in - SSE 4.6 mph - N/A   Unknown
6:51 AM 35.1 °F 31.0 °F 34.0 °F 96% 29.90 in - ESE 4.6 mph - N/A   Unknown
7:51 AM 37.0 °F 32.4 °F 35.1 °F 93% 29.91 in - SE 5.8 mph - N/A   Unknown
8:51 AM 36.0 °F 29.6 °F 34.0 °F 93% 29.92 in - ESE 8.1 mph - N/A   Unknown
9:51 AM 37.9 °F 34.4 °F 36.0 °F 93% 29.92 in - SSE 4.6 mph - N/A   Unknown
10:51 AM 39.0 °F 35.7 °F 37.0 °F 93% 29.92 in - SSE 4.6 mph - N/A   Unknown
11:51 AM 39.0 °F 34.0 °F 37.0 °F 93% 29.89 in - SE 6.9 mph - N/A   Unknown
12:51 PM 39.0 °F 31.8 °F 37.0 °F 93% 29.86 in - SE 11.5 mph - N/A   Unknown
1:51 PM 39.9 °F 32.9 °F 37.9 °F 93% 29.84 in - SE 11.5 mph - N/A   Unknown
2:51 PM 41.0 °F 34.7 °F 37.9 °F 89% 29.83 in - SE 10.4 mph - N/A   Unknown
3:51 PM 39.9 °F 31.8 °F 37.0 °F 89% 29.82 in - SE 15.0 mph 19.6 mph N/A   Unknown
4:51 PM 41.0 °F 32.2 °F 37.0 °F 86% 29.79 in - SE 18.4 mph 24.2 mph N/A   Unknown
5:51 PM 41.0 °F 33.1 °F 37.9 °F 89% 29.77 in - SE 15.0 mph 23.0 mph N/A   Unknown
6:51 PM 42.1 °F 34.2 °F 39.0 °F 89% 29.73 in - SE 16.1 mph 24.2 mph N/A   Unknown
7:51 PM 43.0 °F 34.8 °F 39.0 °F 86% 29.70 in - SE 18.4 mph 27.6 mph N/A   Unknown
8:51 PM 42.1 °F 33.9 °F 39.9 °F 92% 29.67 in - SSE 17.3 mph 28.8 mph 0.18 in   Unknown
9:51 PM 42.1 °F 34.5 °F 39.0 °F 89% 29.65 in - SE 15.0 mph 21.9 mph 0.02 in   Unknown
10:51 PM 43.0 °F 37.2 °F 41.0 °F 93% 29.62 in - SSE 10.4 mph 20.7 mph N/A   Unknown
11:51 PM 45.0 °F 40.6 °F 43.0 °F 93% 29.58 in - SSE 8.1 mph 18.4 mph N/A   Unknown